EW8409 Weather Reports


time (UTC)temp
C
wind
direction
speed
KPH
gust
KPH
rain 1hr
cm
rain 24hr
cm
rain mn
cm
humidity
%
barometer
mb
20260906210055 20 287 0.0 0.0 0.00 0.00 0.00 68 1018.6
20260906204543 20 340 0.0 0.0 0.00 0.00 0.00 69 1018.7
20260906203041 20 93 0.0 1.6 0.00 0.00 0.00 70 1018.5
20260906201541 20 8 0.0 1.6 0.00 0.00 0.00 66 1018.5
20260906200049 20 72 0.0 0.0 0.00 0.00 0.00 70 1018.5
20260906194541 19 79 0.0 0.0 0.00 0.00 0.00 71 1018.7
20260906193038 20 50 0.0 0.0 0.00 0.00 0.00 71 1018.6
20260906191543 20 68 0.0 3.2 0.00 0.00 0.00 71 1018.6
20260906190043 20 83 0.0 1.6 0.00 0.00 0.00 70 1018.4
20260906184538 20 75 0.0 4.8 0.00 0.00 0.00 71 1018.6
20260906183038 20 89 0.0 0.0 0.00 0.00 0.00 71 1018.6
20260906181539 20 85 0.0 1.6 0.00 0.00 0.00 73 1018.7
20260906180035 20 86 0.0 4.8 0.00 0.00 0.00 71 1018.6
20260906174534 20 70 0.0 0.0 0.00 0.00 0.00 75 1018.6
20260906173043 20 64 0.0 0.0 0.00 0.00 0.00 71 1018.6
20260906171533 20 6 0.0 3.2 0.00 0.00 0.00 70 1018.7
20260906170033 20 333 0.0 1.6 0.00 0.00 0.00 66 1018.6
20260906164530 20 38 0.0 0.0 0.00 0.00 0.00 70 1018.6
20260906163027 20 35 0.0 1.6 0.00 0.00 0.00 71 1018.6
20260906161529 19 312 0.0 0.0 0.00 0.00 0.00 76 1018.6
20260906160034 19 89 0.0 6.4 0.00 0.00 0.00 75 1018.5
20260906154536 19 83 0.0 0.0 0.00 0.00 0.00 78 1018.6
20260906153022 18 78 0.0 0.0 0.00 0.00 0.00 79 1018.4
20260906151518 19 118 0.0 1.6 0.00 0.00 0.00 78 1018.3
20260906150021 19 36 0.0 0.0 0.00 0.00 0.00 79 1018.4
20260906144518 19 20 0.0 1.6 0.00 0.00 0.00 80 1018.3
20260906143016 19 44 0.0 1.6 0.00 0.00 0.00 81 1018.3
20260906141513 19 89 0.0 0.0 0.00 0.00 0.00 79 1018.2
20260906140012 19 52 0.0 0.0 0.00 0.00 0.00 79 1017.9
20260906134510 18 52 0.0 0.0 0.00 0.00 0.00 82 1017.7
20260906133007 18 34 0.0 0.0 0.00 0.00 0.00 88 1017.8
20260906131508 18 60 0.0 0.0 0.00 0.00 0.00 86 1017.7
20260906130005 18 62 0.0 0.0 0.00 0.00 0.00 91 1017.6
20260906124600 17 95 0.0 0.0 0.00 0.00 0.00 94 1017.6
20260906123056 17 115 0.0 0.0 0.00 0.00 0.00 98 1017.4
20260906121553 17 332 0.0 0.0 0.00 0.00 0.00 98 1017.4
20260906120051 16 329 0.0 0.0 0.00 0.00 0.00 99 1017.2
20260906114550 15 329 0.0 0.0 0.00 0.00 0.00 98 1016.8
20260906113050 15 329 0.0 0.0 0.00 0.00 0.00 98 1016.7
20260906111546 15 329 0.0 0.0 0.00 0.00 0.00 98 1016.7
20260906110044 15 329 0.0 0.0 0.00 0.00 0.00 98 1016.5
20260906104543 15 329 0.0 0.0 0.00 0.00 0.00 98 1016.4
20260906103041 15 329 0.0 0.0 0.00 0.00 0.00 98 1016.2
20260906101541 15 329 0.0 0.0 0.00 0.00 0.00 98 1016.1
20260906100038 15 329 0.0 0.0 0.00 0.00 0.00 97 1015.9
20260906094537 15 329 0.0 0.0 0.00 0.00 0.00 97 1015.8
20260906093035 15 329 0.0 0.0 0.00 0.00 0.00 97 1015.7
20260906091534 15 329 0.0 0.0 0.00 0.00 0.00 97 1015.5
20260906090030 15 329 0.0 0.0 0.00 0.00 0.00 97 1015.3
20260906084528 15 329 0.0 0.0 0.00 0.00 0.00 97 1015.0
20260906083029 16 329 0.0 0.0 0.00 0.00 0.00 97 1014.9
20260906081534 16 329 0.0 0.0 0.00 0.00 0.00 97 1014.9
20260906080024 16 329 0.0 0.0 0.00 0.00 0.00 97 1014.9
20260906074524 16 329 0.0 0.0 0.00 0.00 0.00 97 1014.9
20260906073021 16 329 0.0 0.0 0.00 0.00 0.00 96 1014.7
20260906071520 16 329 0.0 0.0 0.00 0.00 0.00 97 1014.7
20260906070020 16 329 0.0 0.0 0.00 0.00 0.00 97 1014.7
20260906064519 16 329 0.0 0.0 0.00 0.00 0.00 97 1014.8
20260906063020 16 329 0.0 0.0 0.00 0.00 0.00 97 1014.9
20260906061518 16 329 0.0 0.0 0.00 0.00 0.00 96 1014.8
20260906060016 16 329 0.0 0.0 0.00 0.00 0.00 96 1014.8
20260906054516 16 329 0.0 0.0 0.00 0.00 0.00 96 1014.8
20260906053015 16 329 0.0 0.0 0.00 0.00 0.00 96 1014.9
20260906051512 16 329 0.0 0.0 0.00 0.00 0.00 96 1014.9
20260906050035 16 329 0.0 0.0 0.00 0.00 0.00 96 1014.9
20260906044509 16 329 0.0 0.0 0.00 0.00 0.00 96 1014.8
20260906043009 16 329 0.0 0.0 0.00 0.00 0.00 95 1014.7
20260906041507 16 329 0.0 0.0 0.00 0.00 0.00 95 1014.7
20260906040006 17 329 0.0 0.0 0.00 0.00 0.00 95 1014.6
20260906034503 17 329 0.0 0.0 0.00 0.00 0.00 94 1014.5
20260906033002 17 329 0.0 0.0 0.00 0.00 0.00 95 1014.5
20260906031502 17 329 0.0 0.0 0.00 0.00 0.00 94 1014.5
20260906030002 17 329 0.0 0.0 0.00 0.00 0.00 93 1014.4
20260906024603 17 329 0.0 0.0 0.00 0.00 0.00 93 1014.3
20260906023119 17 329 0.0 0.0 0.00 0.00 0.00 93 1014.3
20260906021611 17 329 0.0 0.0 0.00 0.00 0.00 92 1014.2
20260906014606 17 329 0.0 0.0 0.00 0.00 0.00 91 1014.2
20260906013056 18 329 0.0 0.0 0.00 0.00 0.00 90 1014.0
20260906011601 18 329 0.0 0.0 0.00 0.00 0.00 88 1014.1
20260906010056 18 329 0.0 0.0 0.00 0.00 0.00 88 1014.1
20260906004557 18 329 0.0 0.0 0.00 0.00 0.00 87 1013.9
20260906003104 18 329 0.0 0.0 0.00 0.00 0.00 86 1013.8
20260906001553 19 329 0.0 0.0 0.00 0.00 0.00 85 1013.8
20260906000053 19 329 0.0 0.0 0.00 0.00 0.00 85 1013.8
20260905234601 19 329 0.0 0.0 0.00 0.00 0.00 83 1013.8
20260905233052 20 329 0.0 0.0 0.00 0.00 0.00 82 1013.9
20260905231552 20 347 0.0 0.0 0.00 0.00 0.00 82 1014.0
20260905230053 20 349 0.0 0.0 0.00 0.00 0.00 81 1013.9
20260905224550 20 349 0.0 0.0 0.00 0.00 0.00 80 1014.0
20260905223051 20 9 0.0 0.0 0.00 0.00 0.00 79 1014.0
20260905221547 21 334 0.0 0.0 0.00 0.00 0.00 79 1013.8
20260905220049 21 8 0.0 0.0 0.00 0.00 0.00 79 1013.7
20260905214557 21 288 0.0 0.0 0.00 0.00 0.00 77 1013.6
20260905213047 21 18 0.0 0.0 0.00 0.00 0.00 77 1013.5
20260905211544 21 1 0.0 0.0 0.00 0.00 0.00 76 1013.3